SKY MEXICO-1

Last updated on Sun Oct 06 2024 00:02:40 GMT+0000 (Coordinated Universal Time)

1 40664U 15026B 24279.52525468 -.00000224 00000+0 00000+0 0 9992 2 40664 0.0054 106.2028 0002044 89.1489 289.6813 1.00272679 34243
UTC large
Height (km)
Speed (km/s)
/
Latitude / Longitude
Inclination (degrees)
Orbital Period (minutes)
Azimuth
Elevation
Range (km)
Doppler Factor

Next 0 passes for location: London (51.5072 / 0.1276)

Sorry there are no passes over London.